Wetbulb
56.33 56.92 56.52 55.44 55.60 55.55 54.57 54.88 52.36 54.13 54.63 57.21 62.81 62.62 64.16 69.54 70.83 70.39 70.83 71.49 72.14 72.71 73.32 73.86 74.01 73.40 72.36 72.07 70.84 70.33 71.95 69.27 71.00 69.34 71.76 73.67 75.10 75.15 75.33 74.96 74.19 73.96 73.61 73.80
54.89 56.40 56.09 55.36 56.71 56.50 55.91 56.20 55.76 55.82 55.60 60.34 65.22 64.55 65.80 69.18 69.52 69.12 69.97 71.15 71.53 70.90 71.45 71.21 73.18 73.62 73.76 74.43 73.39 69.36 68.70 68.23 68.79 67.14 68.63 67.30 69.45 68.04 69.20 68.80 70.20 71.23 70.69 71.04
52.89 55.46 54.74 52.52 55.45 54.34 55.89 57.83 57.75 53.06 55.70 61.97 64.34 64.80 66.05 68.22 69.05 69.04 70.09 70.24 69.04 68.27 68.44 69.35 72.06 72.15 70.93 72.34 72.86 70.74 69.29 68.87 67.65 67.05 65.80 65.86 67.38 67.88 67.87 69.50 70.15 70.44 69.94 70.29
53.95 55.43 47.86 56.23 58.58 59.09 57.60 57.32 59.06 56.45 55.72 55.23 64.80 66.83 67.66 69.79 69.51 69.72 70.94 68.33 67.12 67.42 67.32 68.81 70.76 71.14 72.58 72.09 70.81 70.57 69.04 68.42 69.00 67.84 67.51 67.09 67.72 68.37 69.04 69.24 68.80 68.46 68.45 68.59
51.33 51.33 53.69 55.62 57.04 57.14 55.37 56.20 59.46 59.02 60.35 62.26 66.86 65.44 64.90 68.66 70.68 71.15 70.49 69.35 69.57 69.63 68.43 68.51 67.92 69.68 70.20 70.95 69.88 69.85 69.13 70.16 70.14 71.10 69.31 67.71 68.51 68.68 68.96 68.37 68.26 67.80 67.71 67.95
53.49 49.20 47.26 54.72 58.47 61.48 58.69 49.81 60.17 63.90 63.88 63.82 66.71 61.25 64.43 67.89 69.90 71.94 71.51 72.13 71.69 71.54 69.56 68.61 69.15 69.86 69.81 69.13 69.54 68.35 68.11 67.68 67.83 67.73 67.70 67.05 66.99 66.57 67.70 67.73 67.11 66.32 66.34 67.15
52.05 50.16 52.57 58.19 60.11 60.56 51.87 55.91 64.02 65.20 65.65 65.53 64.44 67.96 70.96 71.26 72.04 71.79 71.07 71.05 71.54 71.38 70.30 70.15 71.14 70.24 67.63 67.70 67.42 67.81 67.58 67.44 67.56 67.47 66.86 66.62 66.41 66.82 66.77 66.67 66.79 66.58 66.17 67.03
51.96 49.89 47.77 60.87 60.25 57.49 61.81 64.23 64.84 65.61 66.34 66.41 68.39 70.06 70.83 71.10 69.46 69.75 69.07 68.89 69.86 69.65 69.38 69.93 69.76 68.83 67.50 66.36 67.06 67.09 67.15 66.15 66.61 66.26 65.23 65.31 65.02 65.52 64.99 65.18 64.92 64.94 64.92 64.51
55.21 54.29 60.39 61.83 61.12 64.07 64.91 65.63 67.17 67.17 66.98 67.83 68.49 68.88 70.24 69.00 68.43 68.76 68.69 68.75 69.02 67.92 67.34 67.81 68.40 68.37 66.47 66.79 67.70 67.19 66.80 66.44 65.75 65.52 63.95 64.44 63.97 63.65 62.36 63.77 62.25 62.33 61.55 61.76
55.86 57.72 60.20 61.04 62.99 62.75 62.37 63.08 64.73 67.84 67.76 68.51 68.43 68.17 67.45 67.23 67.76 68.24 68.06 67.66 67.10 66.97 66.32 66.13 67.09 67.34 66.91 67.15 67.49 66.77 65.48 64.69 64.08 63.41 62.17 63.38 62.65 62.78 61.87 61.96 61.20 61.20 61.38 61.08
56.94 59.16 59.30 60.23 59.75 60.47 60.80 63.39 64.25 65.99 68.12 68.25 68.76 66.10 66.52 67.42 67.29 67.01 65.37 65.81 64.26 63.45 65.69 65.94 66.07 66.41 66.56 66.62 66.10 64.85 63.36 62.25 62.54 62.10 62.24 61.89 62.98 61.43 59.51 60.67 56.48 56.72 58.39 59.47
53.11 57.72 57.38 58.19 59.13 59.67 60.65 61.71 61.89 59.55 61.25 68.36 67.59 67.68 67.65 67.18 67.31 67.07 65.97 65.55 65.64 64.68 65.20 65.26 64.47 64.89 64.64 64.51 63.62 62.10 60.92 60.66 59.68 60.61 61.34 61.32 59.68 60.36 54.04 52.77 50.45 49.49 48.22 51.97
56.55 58.84 59.05 59.22 60.74 63.00 61.86 62.04 59.79 59.66 63.37 60.93 66.83 67.21 66.15 66.15 66.42 63.17 66.00 64.83 64.13 64.15 64.66 63.83 62.87 62.25 62.28 62.83 62.48 61.81 61.34 60.84 60.54 57.01 59.95 59.51 58.96 58.56 57.83 55.63 49.56 48.15 47.60 47.67
60.10 59.89 58.27 59.21 58.82 61.56 61.80 63.93 63.63 64.08 65.00 58.53 66.51 65.94 65.25 64.37 63.84 65.19 65.20 65.46 64.18 63.16 61.96 61.57 61.30 60.98 62.24 62.44 61.89 61.27 60.71 52.05 59.08 60.80 59.75 59.32 59.12 58.60 58.47 57.69 57.30 58.52 49.01 50.68
59.56 60.59 60.06 60.54 61.16 61.40 62.54 63.93 64.99 63.90 64.83 65.46 66.44 64.90 62.66 62.09 61.48 63.10 64.61 64.48 64.00 63.25 62.49 61.64 61.08 60.74 62.10 61.90 61.21 60.66 60.17 60.10 60.16 59.34 59.27 58.87 58.68 58.80 58.71 58.46 57.98 57.62 58.00 53.05
59.66 60.17 59.82 59.13 60.12 60.82 61.44 62.39 63.60 63.41 63.35 65.05 61.84 63.64 62.86 62.47 62.23 62.05 63.18 62.93 61.60 60.32 61.42 61.65 61.21 61.43 61.79 61.73 61.05 61.03 60.66 58.60 56.93 58.11 58.37 58.66 57.25 57.24 56.79 56.64 56.88 56.36 56.67 57.20
57.26 56.99 58.70 58.81 60.02 60.54 60.97 62.85 63.87 64.62 63.77 63.85 64.20 63.39 61.21 61.25 60.80 60.26 60.62 61.15 61.89 61.81 61.89 61.54 61.15 62.59 61.74 61.67 61.38 60.65 59.96 59.81 57.79 58.21 57.64 57.95 58.16 57.78 57.44 56.52 56.06 56.44 56.85 57.28
59.44 60.03 60.09 60.55 60.36 60.58 61.40 62.62 63.10 63.87 62.98 62.51 63.30 62.11 59.48 58.74 59.15 59.84 59.71 59.94 59.97 60.50 61.17 61.53 62.03 61.96 61.92 61.85 61.32 60.60 59.64 59.56 59.23 58.84 59.35 59.06 57.64 58.77 57.00 56.20 56.57 55.78 56.54 56.34
59.31 59.54 60.05 60.49 61.51 61.81 62.28 61.75 62.49 63.17 63.12 63.24 61.69 61.04 59.92 59.76 60.67 59.95 60.62 59.92 59.32 59.09 59.58 61.42 57.96 57.72 61.43 61.25 59.99 59.12 58.70 58.64 58.43 58.70 59.28 57.04 57.82 57.80 58.24 56.06 55.51 55.69 56.47 57.20
58.60 59.96 60.41 60.19 61.33 60.81 61.52 61.35 63.01 62.06 63.21 62.49 61.44 60.51 60.18 60.27 61.00 60.70 61.01 59.92 59.85 59.72 61.16 60.85 60.51 61.02 61.46 61.75 59.50 58.96 58.39 58.55 57.80 57.33 56.82 56.02 55.58 56.52 56.97 53.33 55.82 54.90 54.56 55.14
57.91 58.57 58.72 59.38 59.33 59.57 60.53 61.67 61.05 60.83 60.33 59.82 60.07 59.70 59.67 60.21 61.25 60.73 59.15 57.28 60.68 60.27 61.02 58.08 60.23 60.18 60.20 58.19 58.02 58.44 58.27 57.85 56.91 57.25 56.38 56.01 55.29 56.89 54.25 54.20 55.62 55.75 54.51 55.80
58.19 57.99 57.66 58.07 58.26 59.05 60.24 61.44 60.97 60.88 60.50 60.78 60.70 60.92 60.38 60.46 60.62 59.66 60.36 59.31 59.71 53.67 58.84 59.15 60.29 55.82 57.66 54.51 58.89 58.42 58.63 57.93 57.31 57.32 56.48 56.86 56.32 56.72 58.23 56.17 56.78 55.17 56.51 56.60
58.62 58.46 58.17 57.94 57.76 58.13 59.04 56.70 57.72 60.09 58.37 59.81 60.03 59.87 59.87 59.11 58.74 58.01 56.05 60.90 60.05 54.79 58.71 59.38 54.66 54.53 54.49 57.75 58.11 58.15 58.02 57.69 58.08 57.77 57.48 57.28 57.78 58.25 57.96 56.78 55.50 56.57 55.86 55.05
59.10 58.75 58.47 59.25 58.99 58.35 54.42 55.76 56.70 58.27 59.09 61.50 61.61 61.68 60.29 57.83 58.08 59.39 59.30 55.32 53.09 55.63 58.32 59.17 57.42 53.22 50.07 57.94 57.53 56.31 58.66 58.11 57.73 58.16 58.08 52.15 56.26 57.73 57.49 57.19 56.14 56.37 55.60 53.92
59.15 58.20 58.27 57.74 56.82 54.63 55.33 55.86 56.74 57.75 59.13 60.19 60.49 60.54 60.52 60.34 59.46 59.26 60.64 59.99 53.10 55.42 59.21 53.05 53.52 53.53 57.69 58.92 58.61 57.59 57.67 58.23 57.92 58.83 57.91 59.46 58.34 57.75 58.00 57.54 57.28 57.23 57.32 57.06
58.63 57.51 57.03 56.10 56.10 55.96 56.56 56.46 57.06 57.31 57.20 56.34 57.22 59.65 59.19 59.51 59.76 58.93 59.94 57.93 60.11 57.77 59.34 58.94 58.78 58.51 58.69 58.22 58.45 58.44 58.98 58.50 56.12 56.51 56.51 57.37 57.16 57.82 58.19 57.92 57.96 57.46 57.74 57.89
55.04 51.27 56.67 56.66 58.46 58.92 58.77 60.08 58.32 56.76 57.86 58.00 57.49 58.58 58.55 59.26 59.33 57.63 54.74 59.51 59.37 59.54 59.30 59.94 58.88 57.09 59.19 59.10 58.86 58.87 58.86 58.47 55.30 58.83 58.80 58.79 59.16 56.66 56.38 58.05 55.94 57.76 58.92 57.84
MSLP
996.87 996.29 995.83 996.24 996.63 996.03 995.53 995.32 994.90 994.60 994.19 994.06 994.58 995.70 996.54 997.49 999.38 1000.38 1001.14 1001.69 1002.54 1003.30 1003.88 1004.15 1004.61 1005.06 1005.75 1006.33 1007.55 1008.23 1008.91 1008.96 1008.38 1009.72 1010.98 1011.37 1011.72 1011.74 1011.81 1011.96 1012.09 1012.26 1012.25 1012.22
997.82 997.16 996.65 996.07 995.88 995.99 995.90 995.89 995.89 995.87 995.66 995.22 995.88 995.90 996.88 998.28 999.93 1000.72 1001.83 1002.39 1003.47 1004.76 1005.33 1005.76 1005.60 1005.48 1005.87 1007.00 1007.94 1008.46 1008.96 1010.09 1009.76 1010.90 1011.30 1012.25 1012.78 1013.67 1013.50 1013.42 1013.35 1013.05 1013.01 1013.08
997.50 997.58 996.81 996.04 995.90 997.26 997.91 996.64 997.11 998.91 999.73 999.32 998.17 998.82 997.99 998.80 999.97 1000.98 1002.32 1004.11 1005.38 1005.95 1006.55 1006.79 1006.67 1007.10 1007.55 1008.27 1008.67 1009.56 1010.04 1010.89 1011.03 1011.81 1011.26 1011.09 1011.78 1014.21 1013.23 1014.27 1013.14 1013.12 1013.10 1013.21
998.43 998.35 996.92 996.63 995.89 996.33 995.96 996.76 997.74 999.02 1000.93 1001.62 999.18 998.88 998.87 999.31 999.80 1001.55 1002.88 1005.29 1006.67 1007.20 1007.43 1007.57 1007.67 1008.01 1008.14 1008.65 1009.28 1009.94 1010.69 1011.22 1011.59 1011.84 1012.06 1012.55 1013.13 1013.75 1014.18 1013.75 1013.40 1013.16 1013.44 1013.56
998.98 998.11 997.33 996.55 996.28 997.46 998.99 999.18 999.42 997.29 997.85 998.22 998.30 998.83 999.24 999.13 1000.02 1001.19 1004.11 1005.64 1006.82 1007.38 1007.79 1008.08 1008.42 1008.73 1008.86 1009.20 1009.78 1010.21 1010.59 1010.87 1011.43 1011.78 1012.16 1012.82 1013.03 1013.43 1013.81 1013.63 1013.46 1013.69 1013.56 1013.67
999.64 998.65 997.55 997.20 998.06 998.17 998.90 999.24 999.39 999.36 998.21 997.80 997.67 997.47 997.72 998.91 1000.38 1002.54 1004.58 1005.02 1005.86 1006.65 1007.65 1008.24 1008.71 1009.00 1009.23 1009.54 1009.82 1010.30 1010.91 1011.27 1011.18 1011.95 1012.36 1012.83 1013.14 1013.62 1013.97 1013.97 1013.79 1013.67 1013.60 1013.61
999.14 998.89 998.48 999.26 998.97 999.18 999.57 1000.44 1000.22 999.51 999.29 998.58 998.06 998.56 1000.02 1000.89 1002.07 1003.95 1004.32 1004.99 1005.71 1006.23 1007.19 1007.95 1008.37 1008.81 1009.23 1009.73 1010.20 1010.70 1011.16 1011.79 1011.31 1011.99 1012.60 1013.20 1013.54 1013.61 1013.58 1013.58 1013.47 1013.49 1013.34 1013.15
999.74 999.61 999.63 1000.26 1000.33 1000.39 1001.18 1001.03 1000.97 999.97 999.82 999.83 999.89 1000.86 1001.44 1002.12 1003.75 1004.26 1004.89 1005.82 1006.04 1006.58 1007.42 1007.98 1008.54 1009.02 1009.64 1010.36 1010.93 1011.32 1011.69 1012.00 1012.06 1012.54 1012.70 1013.17 1013.54 1013.54 1013.84 1013.68 1013.42 1013.18 1012.99 1012.78
1001.34 1000.80 1001.64 1002.00 1001.57 1001.79 1001.79 1001.43 1000.88 1000.54 1000.91 1001.05 1001.14 1001.92 1002.15 1003.68 1004.51 1005.28 1005.63 1006.03 1006.75 1007.71 1008.48 1009.06 1009.52 1009.85 1010.44 1011.13 1011.46 1011.81 1011.91 1012.18 1012.38 1012.76 1013.29 1013.35 1013.54 1013.45 1013.19 1013.06 1013.14 1012.99 1012.56 1012.30
1002.50 1002.28 1002.76 1002.87 1002.86 1003.41 1003.74 1003.04 1002.16 1001.58 1001.68 1001.33 1001.53 1003.36 1004.23 1004.85 1005.27 1005.35 1005.79 1006.54 1007.58 1008.44 1009.14 1009.40 1010.29 1010.62 1011.06 1011.66 1012.04 1012.23 1012.39 1012.56 1012.77 1012.91 1013.17 1013.18 1012.97 1012.81 1012.85 1012.88 1012.95 1012.76 1012.52 1012.37
1003.67 1003.65 1004.23 1004.21 1005.29 1005.22 1004.71 1003.95 1003.10 1003.06 1002.25 1001.41 1001.63 1004.24 1005.08 1005.43 1005.53 1005.95 1006.93 1007.60 1008.60 1008.49 1009.65 1009.94 1010.10 1010.70 1010.95 1011.63 1012.37 1012.74 1012.97 1012.94 1012.95 1012.74 1013.03 1012.96 1013.06 1013.00 1013.19 1013.76 1014.19 1014.15 1013.74 1013.53
1004.48 1005.30 1005.64 1005.53 1005.63 1005.58 1004.89 1004.44 1003.94 1005.00 1003.30 1000.79 1002.69 1004.49 1005.73 1005.38 1005.99 1006.57 1007.09 1008.00 1008.72 1009.59 1010.76 1011.09 1011.60 1011.61 1011.44 1011.98 1012.64 1012.89 1012.91 1012.68 1012.67 1012.56 1012.55 1012.70 1012.85 1012.76 1013.54 1013.78 1014.13 1014.38 1014.53 1014.50
1006.07 1006.17 1006.32 1005.86 1005.19 1004.92 1005.00 1004.22 1004.36 1004.40 1005.89 1007.02 1005.48 1004.81 1004.82 1006.90 1006.62 1007.12 1007.99 1008.79 1009.51 1010.26 1010.78 1011.70 1011.63 1011.87 1012.24 1012.55 1012.85 1012.83 1012.67 1012.75 1012.65 1012.92 1012.58 1012.72 1012.83 1012.85 1012.88 1013.56 1013.58 1013.92 1014.20 1014.33
1006.91 1006.94 1006.45 1005.79 1005.34 1005.36 1004.99 1004.50 1004.60 1004.98 1005.60 1005.82 1005.88 1005.34 1005.70 1007.24 1007.96 1007.96 1008.73 1009.37 1010.22 1010.86 1010.96 1011.20 1011.83 1012.09 1012.40 1012.74 1012.97 1012.97 1012.92 1013.32 1012.99 1012.73 1012.62 1012.67 1012.50 1012.79 1012.79 1012.68 1012.64 1012.71 1013.69 1013.83
1006.71 1007.01 1006.60 1005.94 1005.50 1005.08 1004.83 1004.50 1004.98 1005.68 1006.17 1005.08 1005.93 1006.22 1008.71 1009.24 1009.67 1009.75 1009.66 1010.10 1010.49 1010.59 1010.95 1011.40 1011.83 1012.21 1012.44 1012.59 1012.83 1012.95 1012.89 1012.53 1012.82 1012.63 1012.54 1012.58 1012.97 1013.00 1012.57 1012.30 1012.33 1012.63 1012.81 1013.49
1007.59 1007.19 1006.48 1005.91 1005.68 1005.53 1004.96 1004.34 1004.38 1005.52 1006.52 1006.85 1007.96 1008.72 1009.14 1009.73 1010.45 1010.71 1010.51 1010.46 1010.76 1010.80 1011.37 1011.61 1011.87 1012.36 1012.63 1012.66 1012.92 1012.74 1012.75 1012.99 1013.16 1013.02 1012.74 1012.32 1012.83 1013.01 1012.74 1012.79 1012.92 1012.81 1012.63 1012.41
1007.59 1007.42 1007.10 1006.72 1006.28 1005.98 1005.40 1005.03 1004.53 1004.22 1005.79 1006.84 1007.54 1008.57 1009.17 1010.44 1010.45 1010.64 1011.25 1011.07 1011.26 1011.33 1011.49 1011.80 1011.77 1012.19 1012.59 1012.72 1012.69 1012.00 1011.66 1012.25 1012.76 1012.55 1012.58 1012.61 1012.59 1012.64 1012.72 1012.56 1012.37 1012.27 1012.22 1012.04
1007.94 1007.73 1007.58 1007.27 1006.99 1006.52 1005.81 1005.50 1005.59 1005.30 1006.35 1007.19 1007.73 1008.59 1009.70 1010.79 1010.62 1010.88 1011.06 1011.52 1011.76 1011.50 1011.56 1011.92 1011.91 1012.25 1012.42 1012.22 1012.33 1011.76 1011.50 1011.62 1011.78 1011.86 1011.65 1011.73 1012.07 1012.20 1012.23 1012.33 1012.08 1011.98 1011.89 1011.72
1008.13 1007.87 1007.93 1007.81 1007.68 1007.10 1006.26 1005.96 1006.28 1006.66 1007.03 1007.49 1008.20 1008.75 1009.60 1009.94 1010.84 1010.95 1011.31 1011.39 1011.40 1011.44 1011.75 1011.84 1012.50 1012.53 1012.12 1012.18 1012.35 1011.83 1011.46 1011.23 1010.86 1010.80 1011.11 1011.47 1011.71 1011.73 1011.66 1011.93 1012.04 1011.56 1011.43 1010.83
1008.16 1008.61 1008.56 1008.28 1007.99 1007.79 1007.49 1007.17 1007.27 1007.45 1007.21 1007.77 1008.46 1009.31 1009.77 1010.34 1010.75 1010.90 1010.96 1010.95 1011.07 1011.17 1011.56 1011.58 1011.96 1011.74 1011.82 1011.94 1012.41 1011.85 1011.01 1010.63 1010.76 1011.08 1011.39 1011.45 1011.45 1011.40 1011.16 1011.36 1011.42 1011.56 1011.08 1011.34
1008.57 1009.20 1008.99 1008.74 1008.69 1008.74 1008.51 1008.34 1008.20 1008.22 1008.79 1009.23 1009.32 1009.65 1010.21 1010.22 1010.90 1010.85 1010.40 1010.33 1010.91 1011.46 1011.25 1011.91 1011.63 1011.12 1011.17 1011.88 1011.93 1011.01 1011.10 1011.13 1011.31 1011.29 1011.42 1011.40 1011.24 1011.19 1011.47 1011.79 1011.31 1011.33 1010.72 1010.02
1008.70 1008.94 1009.36 1009.42 1009.43 1009.27 1009.23 1009.10 1009.07 1009.04 1009.05 1009.19 1009.39 1009.83 1010.02 1010.22 1009.99 1010.22 1010.34 1010.49 1010.93 1011.35 1011.16 1010.83 1010.82 1011.85 1011.96 1012.32 1011.38 1011.18 1011.07 1011.03 1011.02 1010.90 1011.11 1010.94 1010.91 1010.81 1010.93 1010.74 1010.48 1010.44 1010.29 1010.03
1009.54 1009.75 1009.83 1009.91 1009.87 1009.96 1010.22 1010.28 1009.99 1009.46 1009.50 1009.74 1009.70 1009.55 1009.68 1009.51 1009.41 1009.54 1010.30 1010.77 1010.47 1011.31 1011.04 1010.69 1011.64 1011.96 1012.22 1012.03 1011.32 1011.31 1011.02 1010.88 1010.40 1010.50 1010.51 1010.62 1010.47 1010.39 1010.39 1010.52 1010.11 1010.01 1010.15 1010.04
1009.66 1009.96 1010.06 1010.08 1010.12 1010.36 1010.58 1010.46 1010.44 1010.18 1010.05 1009.84 1009.48 1009.50 1009.45 1009.34 1009.54 1009.62 1009.86 1010.68 1011.10 1011.35 1010.86 1010.93 1011.48 1011.94 1011.96 1011.25 1011.24 1011.11 1010.73 1010.75 1010.86 1010.79 1010.59 1010.56 1010.45 1010.34 1009.95 1009.92 1010.00 1009.94 1010.13 1009.94
1009.63 1010.00 1010.29 1010.48 1010.58 1010.79 1010.84 1011.04 1011.01 1010.42 1010.11 1009.82 1010.04 1009.94 1009.72 1009.50 1009.59 1009.40 1009.65 1010.00 1010.79 1010.93 1010.13 1010.83 1010.96 1011.21 1011.08 1010.32 1009.99 1010.25 1010.28 1010.36 1010.18 1009.68 1009.58 1009.77 1009.45 1009.29 1009.39 1009.29 1009.33 1009.39 1009.31 1009.31
1010.13 1010.44 1010.72 1010.94 1010.92 1011.07 1011.14 1011.03 1010.60 1010.05 1009.93 1009.88 1009.78 1009.46 1009.26 1009.25 1009.36 1009.66 1009.71 1009.96 1009.99 1010.17 1009.74 1009.63 1009.99 1010.24 1009.72 1009.41 1009.14 1009.08 1009.15 1009.37 1009.54 1009.50 1009.35 1009.12 1009.07 1009.06 1008.83 1008.73 1008.58 1008.49 1008.58 1008.53
1010.49 1010.73 1010.67 1010.88 1010.95 1010.97 1010.89 1010.44 1010.01 1009.59 1009.30 1009.35 1009.31 1009.03 1008.96 1009.04 1009.27 1009.53 1009.69 1009.17 1009.22 1009.32 1009.28 1009.02 1009.28 1009.60 1008.91 1008.81 1008.61 1008.73 1008.64 1008.32 1008.38 1008.19 1007.92 1007.98 1008.21 1008.30 1008.29 1008.30 1007.99 1008.63 1007.73 1007.54
Wind_Speed
22 21 19 12 18 20 19 18 22 19 22 17 10 10 4 10 8 8 9 8 8 8 6 6 6 5 3 3 8 9 9 12 10 16 13 10 6 3 3 1 3 3 2 4
21 23 24 24 17 18 15 17 22 19 23 16 14 5 2 8 6 7 7 9 9 7 7 6 4 7 8 11 12 16 13 11 13 13 10 8 11 10 11 10 7 2 1 3
18 22 22 22 18 9 30 26 21 10 23 37 21 8 3 3 3 6 7 8 7 8 8 7 7 11 13 13 13 14 13 9 6 4 10 5 7 3 2 9 4 3 3 4
17 20 24 20 25 24 27 21 15 7 10 51 28 18 1 4 7 5 11 8 7 8 8 8 10 13 12 14 13 11 9 6 6 4 7 7 7 7 7 7 5 4 5 6
16 18 22 24 19 9 12 14 32 11 12 14 6 8 7 8 6 7 15 10 9 11 11 10 11 10 11 13 10 9 8 8 7 6 7 6 7 7 5 5 3 5 5 6
15 19 23 20 12 14 9 10 7 26 17 21 7 6 8 10 8 16 13 14 14 16 13 13 10 10 10 10 8 9 9 9 11 9 8 7 6 4 1 4 5 6 5 6
14 15 17 14 16 10 14 12 16 12 16 17 15 9 8 10 15 14 13 12 12 14 13 13 13 10 10 10 9 9 9 8 10 9 8 6 4 3 2 3 3 5 5 4
13 17 22 21 14 11 10 7 12 12 15 14 7 3 8 14 14 13 13 13 13 13 13 12 11 11 12 11 9 8 8 7 9 7 5 5 2 1 3 2 6 5 4 5
10 12 6 10 12 11 12 14 15 14 14 10 2 4 11 13 12 8 13 11 12 12 12 11 10 10 11 8 7 6 6 6 5 4 3 2 3 3 5 3 3 4 5 5
13 10 16 11 16 18 18 16 16 8 14 8 8 7 9 9 12 13 12 11 12 12 12 12 10 10 10 7 6 4 4 3 3 2 4 3 5 1 3 3 4 4 4 4
9 11 14 3 16 19 18 16 15 21 14 9 17 10 12 13 12 10 9 9 7 11 4 10 9 9 9 7 4 3 2 2 2 3 2 1 3 3 4 6 4 6 6 7
9 10 6 14 15 16 12 16 19 7 28 11 12 13 13 14 13 12 14 12 13 12 11 9 8 5 6 5 4 4 4 4 3 3 1 1 4 1 4 2 10 10 7 5
10 12 14 17 13 11 14 17 12 10 13 24 8 9 18 11 13 10 11 12 12 14 13 8 7 5 6 5 4 2 2 2 2 4 3 3 4 4 6 8 10 10 10 10
9 8 13 12 12 13 12 14 1 8 8 21 18 6 5 10 11 14 13 13 13 12 10 10 8 8 6 5 4 3 3 3 6 2 4 4 5 6 5 6 6 2 10 12
7 10 15 16 11 11 11 10 8 1 2 4 7 11 10 8 6 6 12 13 12 11 9 10 8 8 7 6 5 3 4 4 1 5 5 3 5 6 9 7 7 7 8 3
12 14 15 12 12 12 12 13 10 5 7 12 10 12 15 12 9 8 7 8 9 9 9 8 8 8 6 5 4 6 7 4 3 4 7 6 3 5 6 5 6 6 8 8
12 11 13 14 13 13 12 10 11 1 6 9 14 14 12 8 12 10 10 8 7 8 7 6 6 8 7 7 6 7 5 8 11 5 6 6 7 4 4 7 7 8 8 6
11 10 12 12 12 12 11 6 6 2 10 12 19 20 15 15 10 11 10 9 7 7 7 6 5 7 6 5 6 6 6 6 7 10 10 9 7 5 5 5 7 7 6 4
10 9 9 11 9 10 10 3 4 10 12 13 15 15 14 13 12 11 10 8 7 8 7 7 5 3 7 4 4 6 8 11 11 8 4 3 4 7 7 3 5 8 7 9
8 10 9 10 7 6 5 2 6 8 11 14 15 13 14 11 10 9 8 5 4 7 6 9 8 6 1 4 2 8 12 9 10 7 7 5 6 8 2 9 5 8 4 11
6 7 7 8 6 6 6 5 6 9 10 11 13 12 9 9 10 8 7 6 9 7 2 6 6 4 4 7 8 11 8 7 6 8 7 6 4 11 8 12 6 4 7 6
7 6 5 5 5 5 5 3 5 8 11 10 11 9 9 8 6 4 2 5 6 6 2 5 5 7 5 6 8 6 6 5 6 4 4 6 5 4 3 5 5 6 4 5
6 6 5 4 4 4 2 5 6 8 8 8 7 7 4 5 4 4 5 1 1 5 5 5 9 8 1 8 4 7 3 8 5 4 3 3 5 4 5 6 5 6 3 5
6 2 1 3 4 2 3 4 5 3 5 6 6 6 5 2 2 4 8 6 6 3 5 3 5 6 5 7 4 6 2 2 2 3 6 7 4 7 3 6 4 5 5 6
2 4 3 3 7 6 3 4 3 7 6 8 6 5 3 4 2 3 2 5 10 5 7 12 12 10 8 7 5 5 4 4 6 7 5 3 7 5 5 6 5 6 6 6
3 3 4 5 5 3 2 5 7 7 8 7 4 4 7 6 4 4 7 4 2 3 8 1 7 8 8 6 6 4 4 5 5 7 7 5 3 4 5 5 7 6 6 7
6 2 2 2 4 4 3 5 6 4 4 5 4 4 3 3 3 3 2 4 5 5 6 4 4 7 6 6 6 6 6 6 4 6 6 7 3 4 6 6 4 5 10 6
Wind_Direction
284 295 287 237 259 277 280 268 266 281 285 281 73 19 316 150 164 169 162 167 146 139 127 148 175 164 144 138 137 99 101 47 68 46 30 22 336 351 296 220 200 188 165 157
282 289 287 281 279 261 261 265 274 270 273 306 45 87 143 119 163 177 175 154 122 126 121 121 163 162 134 97 105 105 121 117 95 83 41 33 18 14 13 11 357 349 39 317
258 268 276 269 213 266 299 308 355 5 333 315 26 348 55 130 181 182 154 118 143 138 123 127 140 110 104 116 109 103 96 75 67 153 136 127 76 339 352 267 260 244 237 221
273 283 273 265 280 222 231 245 263 160 181 268 155 203 128 138 163 154 123 116 139 124 116 120 118 119 127 124 117 112 122 120 120 106 110 121 189 210 222 237 238 261 259 263
267 260 265 272 287 4 4 330 324 301 284 358 76 140 175 118 103 125 114 155 146 138 124 121 119 114 122 133 127 132 126 111 93 120 127 165 176 177 202 240 236 244 258 258
273 274 271 285 36 19 156 261 220 328 336 337 76 319 325 144 157 112 155 154 151 130 129 129 138 146 142 129 120 121 114 112 106 95 89 88 111 137 182 236 222 245 236 266
253 251 258 15 348 330 288 356 339 358 338 335 337 30 94 149 123 158 155 148 144 140 129 135 145 139 124 113 104 98 90 82 84 86 102 93 91 54 340 275 324 250 250 250
277 284 289 16 343 355 0 321 320 340 340 331 336 42 160 136 142 159 148 142 150 124 129 124 121 121 109 105 103 99 94 95 83 72 31 65 46 105 270 264 253 240 250 262
312 317 6 354 345 6 2 343 359 357 323 305 281 204 134 135 149 168 155 147 123 121 116 110 110 111 109 106 108 102 89 74 65 65 47 53 335 345 283 211 281 284 315 304
300 300 3 345 25 26 344 344 325 340 299 267 134 141 154 132 162 160 145 132 115 124 128 121 117 107 106 113 106 94 93 72 59 36 339 8 301 308 302 317 324 311 301 293
303 302 334 146 359 345 322 334 339 343 289 247 121 154 142 170 165 132 103 97 87 96 179 111 106 120 114 109 112 119 120 136 197 192 220 245 215 15 344 72 11 329 327 334
336 341 331 320 316 312 323 316 303 20 318 57 107 147 178 164 155 159 144 133 134 125 138 119 105 111 100 124 155 169 180 184 49 311 290 7 312 262 180 147 176 199 225 259
324 329 321 297 311 340 335 311 300 341 333 332 304 187 160 186 158 130 141 133 132 137 144 145 138 141 135 132 145 149 328 27 150 254 6 341 323 319 317 199 219 206 202 214
301 304 314 316 320 323 304 300 176 229 181 225 245 163 129 158 135 133 142 134 137 140 145 140 149 152 151 143 145 166 144 71 291 269 310 305 342 321 303 301 317 249 212 224
333 322 298 293 311 324 313 297 287 228 204 81 85 90 85 86 66 138 147 146 156 149 146 154 152 146 160 152 177 184 242 252 335 307 288 353 289 310 305 326 328 342 328 229
308 298 294 317 321 313 317 304 279 136 149 147 151 128 123 141 150 166 134 127 152 153 158 158 153 153 162 163 190 209 229 243 257 307 295 289 4 284 291 300 301 289 282 291
316 327 327 309 308 315 308 306 309 128 133 118 139 122 99 94 140 130 173 158 121 144 145 162 169 153 187 191 223 274 281 178 223 258 264 284 278 259 269 269 269 283 281 296
311 313 318 322 319 308 298 296 277 187 126 119 121 126 138 160 140 139 135 136 151 151 167 156 162 168 210 219 237 288 295 281 218 222 242 247 238 235 235 271 302 269 266 233
311 317 325 321 327 310 304 261 217 134 127 145 135 136 131 142 155 138 154 150 161 155 148 152 128 231 238 111 326 301 304 300 291 303 9 0 287 276 271 224 262 269 257 272
324 333 313 319 318 304 297 146 159 153 132 123 121 128 140 148 145 159 162 165 55 98 156 127 198 218 212 175 169 295 281 311 356 358 340 331 304 281 292 266 346 321 350 286
322 300 321 321 333 345 316 252 188 138 138 144 136 132 140 138 189 177 192 164 140 144 121 156 248 292 81 10 324 293 28 2 337 318 311 298 333 279 36 331 234 298 298 301
315 306 312 317 322 300 323 317 255 183 162 149 138 141 152 181 171 137 42 94 139 178 303 256 152 73 37 320 306 346 331 322 291 298 326 303 265 253 230 300 294 220 279 12
294 281 279 279 314 341 348 13 339 182 147 134 132 150 210 172 185 149 155 157 281 77 307 304 109 118 153 282 324 302 342 287 345 337 315 256 275 280 276 274 298 14 350 314
287 242 301 264 261 347 72 347 358 234 153 174 162 155 174 153 146 225 127 133 114 187 281 95 137 168 240 286 272 273 322 59 21 294 269 261 272 268 302 299 317 337 308 272
287 172 108 64 48 35 122 239 194 160 161 115 132 160 196 192 201 139 69 102 149 234 304 164 190 195 244 265 266 269 267 239 256 297 315 243 264 258 248 255 256 269 290 291
32 51 64 43 29 345 322 190 190 172 157 160 176 190 224 129 137 201 205 200 270 201 267 145 213 203 250 279 313 292 247 230 227 224 231 265 259 269 265 259 263 233 237 260
108 102 82 300 235 213 237 234 177 187 178 144 169 220 127 176 116 288 295 251 248 233 239 268 283 208 285 298 291 311 304 317 318 304 313 305 239 218 224 266 254 260 275 273